| time (UTC) | temp C | wind direction | speed KPH | gust KPH | rain 1hr cm | rain 24hr cm | rain mn cm | humidity % | barometer mb |
| 20260906041329 | 26 | 157 | 1.6 | 4.8 | 0.00 | 0.00 | 0.00 | 79 | 1012.5 |
| 20260906040838 | 26 | 157 | 0.0 | 0.0 | 0.00 | 0.00 | 0.00 | 79 | 1012.5 |
| 20260906040323 | 26 | 157 | 0.0 | 0.0 | 0.00 | 0.00 | 0.00 | 79 | 1012.5 |
| 20260906035836 | 26 | 157 | 0.0 | 0.0 | 0.00 | 0.00 | 0.00 | 79 | 1012.4 |
| 20260906035343 | 26 | 157 | 0.0 | 0.0 | 0.00 | 0.00 | 0.00 | 79 | 1012.3 |
| 20260906034903 | 26 | 157 | 0.0 | 0.0 | 0.00 | 0.00 | 0.00 | 79 | 1012.4 |
| 20260906034346 | 26 | 157 | 0.0 | 4.8 | 0.00 | 0.00 | 0.00 | 79 | 1012.4 |
| 20260906033820 | 26 | 157 | 1.6 | 4.8 | 0.00 | 0.00 | 0.00 | 78 | 1012.4 |
| 20260906033335 | 26 | 157 | 1.6 | 4.8 | 0.00 | 0.00 | 0.00 | 78 | 1012.4 |
| 20260906032838 | 26 | 155 | 1.6 | 8.0 | 0.00 | 0.00 | 0.00 | 78 | 1012.3 |
| 20260906032343 | 26 | 150 | 3.2 | 8.0 | 0.00 | 0.00 | 0.00 | 78 | 1012.4 |
| 20260906031847 | 26 | 122 | 4.8 | 11.3 | 0.00 | 0.00 | 0.00 | 78 | 1012.6 |
| 20260906031332 | 26 | 93 | 4.8 | 11.3 | 0.00 | 0.00 | 0.00 | 78 | 1012.7 |
| 20260906030837 | 26 | 107 | 3.2 | 11.3 | 0.00 | 0.00 | 0.00 | 78 | 1012.7 |
| 20260906030320 | 26 | 98 | 6.4 | 11.3 | 0.00 | 0.00 | 0.00 | 78 | 1012.7 |
| 20260906025833 | 26 | 109 | 4.8 | 9.7 | 0.00 | 0.00 | 0.00 | 77 | 1012.6 |
| 20260906025338 | 26 | 122 | 4.8 | 9.7 | 0.00 | 0.00 | 0.00 | 77 | 1012.7 |
| 20260906024843 | 26 | 113 | 3.2 | 6.4 | 0.00 | 0.00 | 0.00 | 77 | 1012.5 |
| 20260906024327 | 26 | 115 | 3.2 | 6.4 | 0.00 | 0.00 | 0.00 | 77 | 1012.5 |
| 20260906023832 | 26 | 116 | 4.8 | 9.7 | 0.00 | 0.00 | 0.00 | 77 | 1012.4 |
| 20260906023348 | 26 | 101 | 4.8 | 11.3 | 0.00 | 0.00 | 0.00 | 77 | 1012.3 |
| 20260906022831 | 26 | 96 | 4.8 | 11.3 | 0.00 | 0.00 | 0.00 | 77 | 1012.2 |
| 20260906022336 | 26 | 113 | 6.4 | 11.3 | 0.00 | 0.00 | 0.00 | 77 | 1012.1 |
| 20260906021822 | 26 | 123 | 4.8 | 9.7 | 0.00 | 0.00 | 0.00 | 76 | 1012.0 |
| 20260906021324 | 26 | 123 | 4.8 | 11.3 | 0.00 | 0.00 | 0.00 | 76 | 1011.9 |
| 20260906020828 | 26 | 108 | 8.0 | 11.3 | 0.00 | 0.00 | 0.00 | 76 | 1011.8 |
| 20260906020336 | 26 | 128 | 6.4 | 11.3 | 0.00 | 0.00 | 0.00 | 76 | 1011.7 |
| 20260906015824 | 26 | 90 | 4.8 | 12.9 | 0.00 | 0.00 | 0.00 | 76 | 1011.6 |
| 20260906015350 | 27 | 94 | 8.0 | 12.9 | 0.00 | 0.00 | 0.00 | 76 | 1011.7 |
| 20260906014841 | 27 | 78 | 4.8 | 11.3 | 0.00 | 0.00 | 0.00 | 76 | 1011.8 |
| 20260906014326 | 27 | 100 | 4.8 | 11.3 | 0.00 | 0.00 | 0.00 | 75 | 1011.6 |
| 20260906013830 | 27 | 98 | 4.8 | 11.3 | 0.00 | 0.00 | 0.00 | 75 | 1011.6 |
| 20260906013336 | 27 | 110 | 4.8 | 9.7 | 0.00 | 0.00 | 0.00 | 75 | 1011.5 |
| 20260906012822 | 27 | 84 | 3.2 | 8.0 | 0.00 | 0.00 | 0.00 | 75 | 1011.4 |
| 20260906012326 | 27 | 124 | 4.8 | 12.9 | 0.00 | 0.00 | 0.00 | 75 | 1011.3 |
| 20260906011829 | 27 | 97 | 6.4 | 14.5 | 0.00 | 0.00 | 0.00 | 75 | 1011.3 |
| 20260906011337 | 27 | 116 | 9.7 | 17.7 | 0.00 | 0.00 | 0.00 | 75 | 1011.2 |
| 20260906010850 | 27 | 111 | 8.0 | 17.7 | 0.00 | 0.00 | 0.00 | 75 | 1011.2 |
| 20260906010335 | 27 | 111 | 6.4 | 16.1 | 0.00 | 0.00 | 0.00 | 74 | 1011.3 |
| 20260906005845 | 27 | 109 | 8.0 | 16.1 | 0.00 | 0.00 | 0.00 | 74 | 1011.3 |
| 20260906005328 | 27 | 111 | 6.4 | 17.7 | 0.00 | 0.00 | 0.00 | 74 | 1011.5 |
| 20260906004835 | 28 | 60 | 11.3 | 16.1 | 0.00 | 0.00 | 0.00 | 74 | 1011.5 |
| 20260906004321 | 28 | 86 | 8.0 | 12.9 | 0.00 | 0.00 | 0.00 | 74 | 1011.6 |
| 20260906003826 | 28 | 120 | 6.4 | 12.9 | 0.00 | 0.00 | 0.00 | 74 | 1011.6 |
| 20260906003331 | 28 | 116 | 4.8 | 11.3 | 0.00 | 0.00 | 0.00 | 74 | 1011.6 |
| 20260906002907 | 28 | 129 | 4.8 | 16.1 | 0.00 | 0.00 | 0.00 | 74 | 1011.6 |
| 20260906002329 | 28 | 121 | 6.4 | 16.1 | 0.00 | 0.00 | 0.00 | 73 | 1011.6 |
| 20260906001835 | 28 | 110 | 8.0 | 14.5 | 0.00 | 0.00 | 0.00 | 73 | 1011.7 |
| 20260906001322 | 28 | 124 | 6.4 | 12.9 | 0.00 | 0.00 | 0.00 | 73 | 1011.8 |
| 20260906000828 | 28 | 105 | 6.4 | 11.3 | 0.00 | 0.00 | 0.00 | 73 | 1011.8 |
| 20260906000333 | 28 | 113 | 4.8 | 12.9 | 0.00 | 0.00 | 0.00 | 73 | 1011.8 |
| 20260905235819 | 28 | 80 | 4.8 | 12.9 | 0.00 | 0.00 | 0.00 | 72 | 1011.7 |
| 20260905235322 | 28 | 118 | 4.8 | 17.7 | 0.00 | 0.00 | 0.00 | 72 | 1011.7 |
| 20260905234829 | 28 | 83 | 8.0 | 16.1 | 0.00 | 0.00 | 0.00 | 72 | 1011.7 |
| 20260905234342 | 28 | 121 | 4.8 | 14.5 | 0.00 | 0.00 | 0.00 | 72 | 1011.7 |
| 20260905233845 | 28 | 81 | 8.0 | 16.1 | 0.00 | 0.00 | 0.00 | 72 | 1011.6 |
| 20260905233356 | 28 | 91 | 6.4 | 16.1 | 0.00 | 0.00 | 0.00 | 71 | 1011.6 |
| 20260905232843 | 28 | 74 | 8.0 | 16.1 | 0.00 | 0.00 | 0.00 | 71 | 1011.5 |
| 20260905232327 | 28 | 78 | 3.2 | 16.1 | 0.00 | 0.00 | 0.00 | 71 | 1011.4 |
| 20260905231835 | 28 | 90 | 9.7 | 19.3 | 0.00 | 0.00 | 0.00 | 70 | 1011.4 |
| 20260905231321 | 28 | 94 | 9.7 | 19.3 | 0.00 | 0.00 | 0.00 | 70 | 1011.3 |
| 20260905230830 | 28 | 84 | 9.7 | 20.9 | 0.00 | 0.00 | 0.00 | 70 | 1011.3 |
| 20260905230357 | 29 | 74 | 9.7 | 20.9 | 0.00 | 0.00 | 0.00 | 69 | 1011.4 |
| 20260905225844 | 29 | 73 | 9.7 | 19.3 | 0.00 | 0.00 | 0.00 | 69 | 1011.4 |
| 20260905225354 | 29 | 54 | 9.7 | 14.5 | 0.00 | 0.00 | 0.00 | 69 | 1011.4 |
| 20260905224821 | 30 | 78 | 3.2 | 19.3 | 0.00 | 0.00 | 0.00 | 69 | 1011.3 |
| 20260905224329 | 30 | 94 | 8.0 | 20.9 | 0.00 | 0.00 | 0.00 | 69 | 1011.4 |
| 20260905223830 | 30 | 73 | 9.7 | 20.9 | 0.00 | 0.00 | 0.00 | 69 | 1011.3 |
| 20260905223317 | 30 | 79 | 9.7 | 19.3 | 0.00 | 0.00 | 0.00 | 69 | 1011.3 |
| 20260905222846 | 30 | 92 | 9.7 | 17.7 | 0.00 | 0.00 | 0.00 | 69 | 1011.3 |
| 20260905222334 | 31 | 82 | 9.7 | 19.3 | 0.00 | 0.00 | 0.00 | 69 | 1011.3 |
| 20260905221845 | 31 | 32 | 9.7 | 19.3 | 0.00 | 0.00 | 0.00 | 69 | 1011.3 |
| 20260905220837 | 31 | 81 | 4.8 | 12.9 | 0.00 | 0.00 | 0.00 | 70 | 1011.3 |
| 20260905220346 | 31 | 55 | 4.8 | 8.0 | 0.00 | 0.00 | 0.00 | 70 | 1011.4 |
| 20260905215831 | 31 | 311 | 0.0 | 0.0 | 0.00 | 0.00 | 0.00 | 70 | 1011.2 |
| 20260905215317 | 31 | 311 | 0.0 | 0.0 | 0.00 | 0.00 | 0.00 | 70 | 1011.1 |
| 20260905214826 | 32 | 311 | 0.0 | 8.0 | 0.00 | 0.00 | 0.00 | 70 | 1011.1 |
| 20260905214333 | 32 | 311 | 3.2 | 14.5 | 0.00 | 0.00 | 0.00 | 70 | 1011.0 |
| 20260905213818 | 32 | 326 | 4.8 | 14.5 | 0.00 | 0.00 | 0.00 | 71 | 1011.1 |
| 20260905213327 | 32 | 300 | 4.8 | 6.4 | 0.00 | 0.00 | 0.00 | 71 | 1011.2 |
| 20260905212831 | 32 | 253 | 0.0 | 4.8 | 0.00 | 0.00 | 0.00 | 71 | 1011.2 |
| 20260905212317 | 32 | 253 | 1.6 | 6.4 | 0.00 | 0.00 | 0.00 | 71 | 1011.3 |
| 20260905211821 | 32 | 253 | 1.6 | 9.7 | 0.00 | 0.00 | 0.00 | 71 | 1011.5 |
| 20260905211352 | 32 | 270 | 1.6 | 9.7 | 0.00 | 0.00 | 0.00 | 71 | 1011.5 |
| 20260905210819 | 32 | 294 | 1.6 | 11.3 | 0.00 | 0.00 | 0.00 | 72 | 1011.5 |
| 20260905210324 | 32 | 249 | 3.2 | 16.1 | 0.00 | 0.00 | 0.00 | 72 | 1011.5 |
| 20260905205829 | 32 | 234 | 9.7 | 20.9 | 0.00 | 0.00 | 0.00 | 72 | 1011.5 |
| 20260905205328 | 32 | 244 | 6.4 | 20.9 | 0.00 | 0.00 | 0.00 | 72 | 1011.4 |
| 20260905204841 | 32 | 211 | 4.8 | 16.1 | 0.00 | 0.00 | 0.00 | 72 | 1011.6 |
| 20260905204327 | 32 | 255 | 9.7 | 19.3 | 0.00 | 0.00 | 0.00 | 72 | 1011.6 |
| 20260905203832 | 32 | 273 | 8.0 | 19.3 | 0.00 | 0.00 | 0.00 | 72 | 1011.7 |
| 20260905203320 | 32 | 274 | 6.4 | 19.3 | 0.00 | 0.00 | 0.00 | 73 | 1011.7 |
| 20260905202846 | 32 | 229 | 11.3 | 19.3 | 0.00 | 0.00 | 0.00 | 73 | 1011.8 |
| 20260905202356 | 32 | 231 | 8.0 | 16.1 | 0.00 | 0.00 | 0.00 | 73 | 1011.8 |
| 20260905201841 | 32 | 223 | 9.7 | 17.7 | 0.00 | 0.00 | 0.00 | 73 | 1011.8 |
| 20260905201329 | 32 | 205 | 6.4 | 17.7 | 0.00 | 0.00 | 0.00 | 73 | 1011.8 |
| 20260905200827 | 32 | 236 | 9.7 | 17.7 | 0.00 | 0.00 | 0.00 | 74 | 1011.8 |
| 20260905200335 | 32 | 227 | 6.4 | 14.5 | 0.00 | 0.00 | 0.00 | 74 | 1011.8 |
| 20260905195824 | 32 | 312 | 3.2 | 8.0 | 0.00 | 0.00 | 0.00 | 74 | 1011.9 |
| 20260905195326 | 32 | 315 | 3.2 | 8.0 | 0.00 | 0.00 | 0.00 | 75 | 1011.9 |
| 20260905194829 | 32 | 308 | 1.6 | 4.8 | 0.00 | 0.00 | 0.00 | 75 | 1011.9 |
| 20260905194336 | 32 | 308 | 1.6 | 4.8 | 0.00 | 0.00 | 0.00 | 75 | 1011.9 |
| 20260905193846 | 33 | 308 | 3.2 | 6.4 | 0.00 | 0.00 | 0.00 | 76 | 1012.1 |
| 20260905193328 | 33 | 308 | 4.8 | 6.4 | 0.00 | 0.00 | 0.00 | 76 | 1012.1 |
| 20260905192831 | 33 | 71 | 4.8 | 12.9 | 0.00 | 0.00 | 0.00 | 76 | 1012.1 |
| 20260905192403 | 33 | 74 | 6.4 | 12.9 | 0.00 | 0.00 | 0.00 | 77 | 1012.1 |
| 20260905191819 | 33 | 167 | 3.2 | 16.1 | 0.00 | 0.00 | 0.00 | 78 | 1012.1 |
| 20260905191351 | 33 | 180 | 6.4 | 16.1 | 0.00 | 0.00 | 0.00 | 78 | 1012.2 |
| 20260905190831 | 33 | 135 | 4.8 | 9.7 | 0.00 | 0.00 | 0.00 | 79 | 1012.3 |
| 20260905190337 | 32 | 142 | 6.4 | 8.0 | 0.00 | 0.00 | 0.00 | 79 | 1012.4 |
| 20260905185908 | 32 | 120 | 4.8 | 9.7 | 0.00 | 0.00 | 0.00 | 79 | 1012.5 |
| 20260905185345 | 32 | 170 | 3.2 | 12.9 | 0.00 | 0.00 | 0.00 | 80 | 1012.5 |
| 20260905184827 | 32 | 260 | 4.8 | 14.5 | 0.00 | 0.00 | 0.00 | 80 | 1012.5 |
| 20260905184338 | 32 | 200 | 4.8 | 14.5 | 0.00 | 0.00 | 0.00 | 80 | 1012.6 |
| 20260905183844 | 32 | 76 | 8.0 | 16.1 | 0.00 | 0.00 | 0.00 | 80 | 1012.7 |
| 20260905183327 | 32 | 78 | 6.4 | 16.1 | 0.00 | 0.00 | 0.00 | 80 | 1012.9 |
| 20260905182831 | 32 | 76 | 4.8 | 11.3 | 0.00 | 0.00 | 0.00 | 81 | 1013.0 |
| 20260905182332 | 32 | 107 | 3.2 | 12.9 | 0.00 | 0.00 | 0.00 | 82 | 1013.1 |
| 20260905181818 | 31 | 150 | 6.4 | 11.3 | 0.00 | 0.00 | 0.00 | 82 | 1013.2 |
| 20260905181321 | 31 | 174 | 4.8 | 8.0 | 0.00 | 0.00 | 0.00 | 82 | 1013.4 |
| 20260905180851 | 31 | 117 | 4.8 | 9.7 | 0.00 | 0.00 | 0.00 | 82 | 1013.5 |
| 20260905180337 | 31 | 118 | 1.6 | 9.7 | 0.00 | 0.00 | 0.00 | 83 | 1013.6 |
| 20260905175824 | 31 | 119 | 4.8 | 9.7 | 0.00 | 0.00 | 0.00 | 83 | 1013.7 |
| 20260905175327 | 31 | 144 | 3.2 | 11.3 | 0.00 | 0.00 | 0.00 | 83 | 1013.7 |
| 20260905174825 | 31 | 107 | 6.4 | 11.3 | 0.00 | 0.00 | 0.00 | 83 | 1013.8 |
| 20260905174328 | 31 | 199 | 4.8 | 11.3 | 0.00 | 0.00 | 0.00 | 83 | 1013.9 |
| 20260905173836 | 31 | 226 | 3.2 | 6.4 | 0.00 | 0.00 | 0.00 | 84 | 1013.9 |
| 20260905173349 | 31 | 229 | 4.8 | 6.4 | 0.00 | 0.00 | 0.00 | 84 | 1014.0 |
| 20260905172828 | 31 | 156 | 1.6 | 8.0 | 0.00 | 0.00 | 0.00 | 85 | 1014.0 |
| 20260905172328 | 31 | 88 | 4.8 | 9.7 | 0.00 | 0.00 | 0.00 | 85 | 1014.1 |
| 20260905171834 | 31 | 61 | 6.4 | 9.7 | 0.00 | 0.00 | 0.00 | 85 | 1014.2 |
| 20260905171319 | 30 | 74 | 8.0 | 11.3 | 0.00 | 0.00 | 0.00 | 85 | 1014.3 |
| 20260905170825 | 30 | 109 | 4.8 | 9.7 | 0.00 | 0.00 | 0.00 | 85 | 1014.3 |
| 20260905170332 | 30 | 90 | 4.8 | 9.7 | 0.00 | 0.00 | 0.00 | 85 | 1014.3 |
| 20260905165820 | 30 | 224 | 3.2 | 4.8 | 0.00 | 0.00 | 0.00 | 85 | 1014.4 |
| 20260905165325 | 30 | 230 | 0.0 | 3.2 | 0.00 | 0.00 | 0.00 | 85 | 1014.4 |
| 20260905164828 | 30 | 229 | 0.0 | 3.2 | 0.00 | 0.00 | 0.00 | 86 | 1014.3 |
| 20260905164339 | 30 | 229 | 1.6 | 4.8 | 0.00 | 0.00 | 0.00 | 86 | 1014.4 |
| 20260905163823 | 30 | 230 | 0.0 | 8.0 | 0.00 | 0.00 | 0.00 | 86 | 1014.4 |
| 20260905163330 | 30 | 229 | 4.8 | 11.3 | 0.00 | 0.00 | 0.00 | 86 | 1014.4 |
| 20260905162851 | 30 | 181 | 8.0 | 11.3 | 0.00 | 0.00 | 0.00 | 87 | 1014.3 |
| 20260905162404 | 30 | 141 | 4.8 | 8.0 | 0.00 | 0.00 | 0.00 | 87 | 1014.3 |
| 20260905161826 | 30 | 144 | 1.6 | 12.9 | 0.00 | 0.00 | 0.00 | 87 | 1014.3 |
| 20260905161328 | 30 | 134 | 4.8 | 12.9 | 0.00 | 0.00 | 0.00 | 87 | 1014.2 |
| 20260905160831 | 30 | 107 | 3.2 | 12.9 | 0.00 | 0.00 | 0.00 | 87 | 1014.2 |
| 20260905160337 | 30 | 95 | 8.0 | 11.3 | 0.00 | 0.00 | 0.00 | 87 | 1014.4 |
| 20260905155823 | 30 | 245 | 4.8 | 11.3 | 0.00 | 0.00 | 0.00 | 88 | 1014.5 |
| 20260905155354 | 30 | 183 | 3.2 | 8.0 | 0.00 | 0.03 | 0.00 | 88 | 1014.4 |
| 20260905154858 | 30 | 199 | 1.6 | 6.4 | 0.00 | 0.03 | 0.00 | 88 | 1014.4 |
| 20260905154320 | 30 | 221 | 3.2 | 16.1 | 0.00 | 0.03 | 0.00 | 88 | 1014.4 |
| 20260905153851 | 29 | 252 | 8.0 | 16.1 | 0.00 | 0.03 | 0.00 | 88 | 1014.3 |
| 20260905153333 | 29 | 234 | 1.6 | 12.9 | 0.00 | 0.03 | 0.00 | 88 | 1014.4 |
| 20260905152839 | 29 | 230 | 8.0 | 12.9 | 0.00 | 0.03 | 0.00 | 88 | 1014.4 |
| 20260905152323 | 29 | 252 | 4.8 | 16.1 | 0.00 | 0.03 | 0.00 | 88 | 1014.4 |
| 20260905151826 | 29 | 243 | 6.4 | 16.1 | 0.00 | 0.03 | 0.00 | 88 | 1014.3 |
| 20260905151330 | 29 | 193 | 4.8 | 11.3 | 0.00 | 0.03 | 0.00 | 88 | 1014.3 |
| 20260905150835 | 28 | 307 | 4.8 | 11.3 | 0.00 | 0.03 | 0.00 | 88 | 1014.2 |
| 20260905150347 | 28 | 286 | 1.6 | 8.0 | 0.00 | 0.03 | 0.00 | 88 | 1014.3 |
| 20260905145820 | 28 | 259 | 1.6 | 4.8 | 0.00 | 0.03 | 0.00 | 88 | 1014.4 |
| 20260905145331 | 28 | 261 | 1.6 | 11.3 | 0.00 | 0.03 | 0.00 | 88 | 1014.5 |
| 20260905144836 | 28 | 275 | 3.2 | 11.3 | 0.00 | 0.03 | 0.00 | 88 | 1014.5 |
| 20260905144321 | 28 | 276 | 1.6 | 6.4 | 0.00 | 0.03 | 0.00 | 88 | 1014.5 |
| 20260905143847 | 27 | 262 | 1.6 | 4.8 | 0.00 | 0.03 | 0.00 | 88 | 1014.4 |
| 20260905143328 | 27 | 263 | 3.2 | 4.8 | 0.00 | 0.03 | 0.00 | 87 | 1014.4 |
| 20260905142840 | 27 | 263 | 0.0 | 4.8 | 0.00 | 0.03 | 0.00 | 87 | 1014.5 |
| 20260905142341 | 27 | 246 | 0.0 | 0.0 | 0.00 | 0.03 | 0.00 | 87 | 1014.5 |
| 20260905141826 | 27 | 165 | 0.0 | 0.0 | 0.00 | 0.03 | 0.00 | 87 | 1014.5 |
| 20260905141325 | 27 | 141 | 0.0 | 0.0 | 0.00 | 0.03 | 0.00 | 87 | 1014.4 |
| 20260905140827 | 27 | 140 | 0.0 | 0.0 | 0.00 | 0.03 | 0.00 | 87 | 1014.5 |
| 20260905140333 | 26 | 140 | 0.0 | 0.0 | 0.00 | 0.03 | 0.00 | 87 | 1014.5 |
| 20260905135838 | 26 | 140 | 0.0 | 0.0 | 0.00 | 0.03 | 0.00 | 87 | 1014.5 |
| 20260905135319 | 26 | 150 | 0.0 | 0.0 | 0.00 | 0.03 | 0.00 | 87 | 1014.4 |
| 20260905134820 | 26 | 173 | 0.0 | 0.0 | 0.00 | 0.03 | 0.00 | 87 | 1014.4 |
| 20260905134353 | 26 | 173 | 0.0 | 0.0 | 0.00 | 0.03 | 0.00 | 87 | 1014.4 |
| 20260905133836 | 25 | 173 | 0.0 | 0.0 | 0.00 | 0.03 | 0.00 | 87 | 1014.4 |
| 20260905133321 | 25 | 174 | 0.0 | 0.0 | 0.00 | 0.03 | 0.00 | 86 | 1014.3 |
| 20260905132828 | 25 | 173 | 0.0 | 1.6 | 0.00 | 0.03 | 0.00 | 86 | 1014.3 |
| 20260905132329 | 25 | 173 | 0.0 | 1.6 | 0.00 | 0.03 | 0.00 | 86 | 1014.2 |
| 20260905131834 | 25 | 173 | 0.0 | 0.0 | 0.00 | 0.03 | 0.00 | 86 | 1014.2 |
| 20260905131318 | 24 | 173 | 0.0 | 4.8 | 0.00 | 0.03 | 0.00 | 86 | 1014.2 |
| 20260905130820 | 24 | 173 | 0.0 | 4.8 | 0.00 | 0.03 | 0.00 | 86 | 1014.2 |
| 20260905130331 | 24 | 174 | 3.2 | 4.8 | 0.00 | 0.03 | 0.00 | 86 | 1014.2 |
| 20260905125818 | 23 | 174 | 3.2 | 4.8 | 0.00 | 0.03 | 0.00 | 86 | 1014.2 |
| 20260905125318 | 23 | 175 | 1.6 | 4.8 | 0.00 | 0.03 | 0.00 | 86 | 1014.0 |
| 20260905124823 | 23 | 175 | 3.2 | 6.4 | 0.00 | 0.03 | 0.00 | 86 | 1013.9 |
| 20260905124349 | 23 | 180 | 3.2 | 6.4 | 0.00 | 0.03 | 0.00 | 85 | 1013.8 |
| 20260905123844 | 23 | 194 | 3.2 | 4.8 | 0.00 | 0.03 | 0.00 | 85 | 1013.7 |
| 20260905123317 | 23 | 197 | 1.6 | 3.2 | 0.00 | 0.03 | 0.00 | 85 | 1013.7 |
| 20260905122831 | 23 | 197 | 1.6 | 4.8 | 0.00 | 0.03 | 0.00 | 85 | 1013.6 |
| 20260905122353 | 23 | 197 | 3.2 | 4.8 | 0.00 | 0.03 | 0.00 | 85 | 1013.7 |
| 20260905121818 | 23 | 197 | 0.0 | 0.0 | 0.00 | 0.03 | 0.00 | 85 | 1013.5 |
| 20260905121350 | 23 | 197 | 0.0 | 0.0 | 0.00 | 0.03 | 0.00 | 85 | 1013.5 |
| 20260905120837 | 23 | 197 | 0.0 | 0.0 | 0.00 | 0.03 | 0.00 | 85 | 1013.5 |
| 20260905120325 | 23 | 197 | 0.0 | 0.0 | 0.00 | 0.03 | 0.00 | 85 | 1013.4 |